Bigfork, MN

10:44 AM CDT on March 27, 2017 (GMT -0500)
Bigfork Municipal

Weather History for KFOZ - March, 2013

Change the Weather History Date:

Saturday, March 9, 2013

  Actual Average (KGPZ) Record (KGPZ)
Temperature  
Mean Temperature 30 °F -  
Max Temperature 33 °F 33 °F 63 °F (1919)
Min Temperature 26 °F 10 °F -22 °F (1982)
Degree Days  
Heating Degree Days 36    
Moisture  
Dew Point 28 °F    
Average Humidity 88    
Maximum Humidity 93    
Minimum Humidity 80    
Precipitation  
Precipitation 0.59 in - - ()
Sea Level Pressure  
Sea Level Pressure 29.86 in    
Wind  
Wind Speed 2 mph (ESE)    
Max Wind Speed 7 mph    
Max Gust Speed -    
Visibility 2 miles    
Events Snow    
Averages and records for this station are not official NWS values.
T = Trace of Precipitation, MM = Missing Value Source: NWS Daily Summary

Daily Weather History Graph

Daily Weather History Graph

Search for Another Location

Airport or City:

Trip Planner

Search our weather history database for the weather conditions in past years. The results will help you decide how hot, cold, wet, or windy it might be!

Date:

Astronomy

Mar. 09, 2013 Rise Set
Actual Time 6:39 AM CST 6:11 PM CST
Civil Twilight 6:08 AM CST 6:42 PM CST
Nautical Twilight 5:32 AM CST 7:18 PM CST
Astronomical Twilight 4:56 AM CST 7:54 PM CST
Moon 5:11 AM CST (3/9) 4:08 PM CST (3/9)
Length of Visible Light 12h 34m
Length of Day
11h 32m
Waning Crescent, 5% of the Moon is Illuminated
Mar 9
Waning Crescent
Mar 11
New
Mar 19
First Quarter
Mar 27
Full
Apr 2
Last Quarter

Hourly Weather History & Observations

Time (CST) Temp. Windchill Dew Point Humidity Pressure Visibility Wind Dir Wind Speed Gust Speed Precip Events Conditions
12:13 AM 26.6 °F - 23.0 °F 86% 30.07 in 5.0 mi Calm Calm - N/A   Clear
12:33 AM 26.6 °F 22.6 °F 23.0 °F 86% 30.06 in 5.0 mi East 3.5 mph - N/A   Clear
12:53 AM 26.6 °F - 23.0 °F 86% 30.06 in 5.0 mi Calm Calm - N/A   Clear
1:13 AM 28.4 °F - 23.0 °F 80% 30.06 in 5.0 mi Calm Calm - N/A   Haze
1:33 AM 26.6 °F - 23.0 °F 86% 30.05 in 5.0 mi Calm Calm - N/A   Mostly Cloudy
1:53 AM 26.6 °F - 23.0 °F 86% 30.04 in 5.0 mi Calm Calm - N/A   Scattered Clouds
2:13 AM 28.4 °F - 24.8 °F 86% 30.03 in 5.0 mi Calm Calm - N/A   Scattered Clouds
2:33 AM 28.4 °F - 24.8 °F 86% 30.02 in 4.0 mi Calm Calm - N/A Snow Light Snow
2:53 AM 28.4 °F - 24.8 °F 86% 30.01 in 1.2 mi Calm Calm - N/A Snow Light Snow
3:13 AM 28.4 °F - 26.6 °F 93% 30.00 in 1.2 mi Calm Calm - N/A Snow Light Snow
3:33 AM 28.4 °F 23.3 °F 26.6 °F 93% 29.98 in 1.2 mi East 4.6 mph - 0.01 in Snow Light Snow
3:53 AM 28.4 °F 24.6 °F 26.6 °F 93% 29.98 in 0.8 mi East 3.5 mph - N/A Snow Snow
4:13 AM 30.2 °F 25.4 °F 26.6 °F 86% 29.95 in 1.8 mi East 4.6 mph - N/A Snow Light Snow
4:33 AM 30.2 °F 25.4 °F 28.4 °F 93% 29.95 in 2.5 mi East 4.6 mph - 0.02 in Snow Light Snow
4:53 AM 30.2 °F 25.4 °F 28.4 °F 93% 29.94 in 2.5 mi East 4.6 mph - 0.02 in Snow Light Snow
5:13 AM 30.2 °F 25.4 °F 28.4 °F 93% 29.94 in 3.0 mi SSE 4.6 mph - 0.05 in   Overcast
5:33 AM 30.2 °F 25.4 °F 28.4 °F 93% 29.94 in 1.2 mi ESE 4.6 mph - 0.06 in Snow Light Snow
5:53 AM 30.2 °F 25.4 °F 28.4 °F 93% 29.93 in 1.0 mi ESE 4.6 mph - 0.01 in Snow Light Snow
6:13 AM 30.2 °F 24.3 °F 26.6 °F 86% 29.93 in 1.0 mi ESE 5.8 mph - 0.03 in Snow Snow
6:33 AM 30.2 °F 25.4 °F 26.6 °F 86% 29.93 in 0.8 mi ESE 4.6 mph - 0.06 in Snow Snow
6:53 AM 30.2 °F 25.4 °F 26.6 °F 86% 29.92 in 0.8 mi ESE 4.6 mph - 0.02 in Snow Snow
7:13 AM 30.2 °F 25.4 °F 26.6 °F 86% 29.91 in 0.2 mi ESE 4.6 mph - 0.04 in Snow Snow
7:33 AM 30.2 °F 23.4 °F 26.6 °F 86% 29.91 in 0.2 mi ESE 6.9 mph - 0.07 in Snow Snow
7:53 AM 30.2 °F 23.4 °F 26.6 °F 86% 29.90 in 0.5 mi SE 6.9 mph - 0.01 in Snow Snow
8:13 AM 30.2 °F 23.4 °F 26.6 °F 86% 29.89 in 0.2 mi ESE 6.9 mph - 0.03 in Snow Snow
8:33 AM 30.2 °F 25.4 °F 26.6 °F 86% 29.88 in 0.5 mi ESE 4.6 mph - 0.05 in Snow Snow
8:53 AM 30.2 °F 25.4 °F 26.6 °F 86% 29.87 in 0.5 mi ESE 4.6 mph - 0.01 in Snow Snow
9:13 AM 30.2 °F 25.4 °F 26.6 °F 86% 29.87 in 0.2 mi SE 4.6 mph - 0.04 in Snow Snow
9:33 AM 30.2 °F 26.7 °F 28.4 °F 93% 29.86 in 0.5 mi ESE 3.5 mph - 0.06 in   Overcast
9:53 AM 30.2 °F 25.4 °F 28.4 °F 93% 29.84 in 0.5 mi ESE 4.6 mph - 0.02 in Snow Snow
10:13 AM 30.2 °F 26.7 °F 28.4 °F 93% 29.83 in 0.8 mi ESE 3.5 mph - 0.05 in Snow Light Snow
10:33 AM 32.0 °F 26.4 °F 28.4 °F 87% 29.83 in 1.2 mi SE 5.8 mph - 0.07 in Snow Light Snow
10:53 AM 32.0 °F 27.5 °F 28.4 °F 87% 29.81 in 1.2 mi ESE 4.6 mph - N/A Snow Light Snow
11:13 AM 32.0 °F 27.5 °F 28.4 °F 87% 29.82 in 1.5 mi SE 4.6 mph - 0.03 in Snow Light Snow
11:33 AM 33.8 °F 30.8 °F 28.4 °F 81% 29.81 in 2.5 mi ESE 3.5 mph - 0.05 in Snow Light Snow
11:53 AM 33.8 °F 28.6 °F 28.4 °F 81% 29.81 in 1.8 mi SSE 5.8 mph - 0.01 in Snow Light Snow
12:13 PM 33.8 °F 30.8 °F 30.2 °F 87% 29.81 in 1.8 mi SE 3.5 mph - 0.02 in Snow Light Snow
12:33 PM 33.8 °F 30.8 °F 30.2 °F 87% 29.80 in 3.0 mi SSE 3.5 mph - 0.03 in Snow Light Snow
12:53 PM 33.8 °F - 30.2 °F 87% 29.79 in 4.0 mi Calm Calm - N/A Snow Light Snow
1:13 PM 33.8 °F 29.6 °F 30.2 °F 87% 29.78 in 1.8 mi South 4.6 mph - N/A Snow Light Snow
1:33 PM 33.8 °F - 30.2 °F 87% 29.77 in 1.5 mi Calm Calm - N/A Snow Light Snow
1:53 PM 33.8 °F - 30.2 °F 87% 29.77 in 2.5 mi Calm Calm - N/A Snow Light Snow
2:13 PM 33.8 °F - 30.2 °F 87% 29.76 in 4.0 mi Calm Calm - N/A Snow Light Snow
2:33 PM 33.8 °F - 30.2 °F 87% 29.76 in 2.0 mi Calm Calm - N/A Snow Light Snow
2:53 PM 33.8 °F - 30.2 °F 87% 29.75 in 1.0 mi Calm Calm - 0.01 in Snow Light Snow
3:13 PM 33.8 °F - 30.2 °F 87% 29.75 in 0.8 mi Calm Calm - 0.02 in   Overcast
3:33 PM 33.8 °F - 30.2 °F 87% 29.75 in 0.8 mi Calm Calm - 0.03 in   Overcast
3:53 PM 33.8 °F - 30.2 °F 87% 29.75 in 1.2 mi Calm Calm - N/A Snow Light Snow
4:13 PM 33.8 °F - 30.2 °F 87% 29.74 in 1.5 mi Calm Calm - N/A Snow Light Snow
4:33 PM 33.8 °F - 30.2 °F 87% 29.73 in 1.5 mi Calm Calm - N/A Snow Light Snow
4:53 PM 33.8 °F - 30.2 °F 87% 29.74 in 1.8 mi Calm Calm - N/A Snow Light Snow
5:13 PM 33.8 °F - 30.2 °F 87% 29.74 in 1.5 mi Calm Calm - N/A Snow Light Snow
5:33 PM 33.8 °F - 30.2 °F 87% 29.75 in 1.5 mi Calm Calm - N/A Snow Light Snow
5:53 PM 33.8 °F - 30.2 °F 87% 29.76 in 1.0 mi Calm Calm - N/A Snow Light Snow
6:13 PM 33.8 °F - 30.2 °F 87% 29.76 in 1.0 mi Calm Calm - 0.02 in Snow Heavy Snow
6:33 PM 33.8 °F - 30.2 °F 87% 29.76 in 1.2 mi Calm Calm - 0.04 in Snow Heavy Snow
6:53 PM 33.8 °F - 30.2 °F 87% 29.77 in 1.5 mi Calm Calm - N/A   Overcast
7:13 PM 33.8 °F - 30.2 °F 87% 29.77 in 1.5 mi Calm Calm - 0.01 in Snow Light Snow
7:33 PM 33.8 °F - 30.2 °F 87% 29.78 in 2.0 mi Calm Calm - 0.02 in Snow Light Snow
7:53 PM 33.8 °F - 30.2 °F 87% 29.79 in 2.0 mi Calm Calm - N/A Snow Light Snow
8:13 PM 32.0 °F - 30.2 °F 93% 29.79 in 3.0 mi Calm Calm - N/A Snow Light Snow
8:33 PM 32.0 °F 28.7 °F 30.2 °F 93% 29.79 in 2.5 mi NNW 3.5 mph - 0.01 in Snow Light Snow
8:53 PM 32.0 °F 28.7 °F 30.2 °F 93% 29.80 in 2.0 mi NNW 3.5 mph - N/A Snow Light Snow
9:13 PM 32.0 °F 27.5 °F 30.2 °F 93% 29.79 in 3.0 mi NNW 4.6 mph - N/A Snow Light Snow
9:33 PM 32.0 °F - 28.4 °F 87% 29.80 in 3.0 mi Calm Calm - N/A Snow Light Snow
9:53 PM 32.0 °F 28.7 °F 28.4 °F 87% 29.80 in 4.0 mi NNW 3.5 mph - N/A Snow Light Snow
10:13 PM 32.0 °F 28.7 °F 28.4 °F 87% 29.80 in 5.0 mi NW 3.5 mph - N/A Snow Light Snow
10:33 PM 30.2 °F 26.7 °F 28.4 °F 93% 29.81 in 5.0 mi NNW 3.5 mph - N/A Snow Light Snow
10:53 PM 30.2 °F 25.4 °F 28.4 °F 93% 29.82 in 5.0 mi NW 4.6 mph - N/A Snow Light Snow
11:13 PM 30.2 °F - 28.4 °F 93% 29.82 in 5.0 mi Calm Calm - N/A   Overcast
11:33 PM 30.2 °F 26.7 °F 28.4 °F 93% 29.82 in 5.0 mi NNW 3.5 mph - N/A   Overcast
11:53 PM 30.2 °F 26.7 °F 28.4 °F 93% 29.82 in 5.0 mi NNW 3.5 mph - N/A   Overcast